Purdue University Airport Lafayette US
ICAO: KLAF
IATA: LAF
Category: Medium
Scheduled Services: No

Elevation: 606 ft
TransAlt. 18000 ft.

Airport Communications:
ASOS:127.75
ATIS:127.75
CHICAGO CNTR:123.85
CTAF:119.6
GND:121.9
TERRE HAUTE RDO:122.2
LAFAYETTE TWR:119.6
UNICOM:122.95

KLAF Zoom In..

If you have problems with the map follow the link
https://www.worldairports.se/pages/airport.php?
ICAO=KLAF

Runways:

(A) RW 05 length 4225 ft width 100 ft
---- / hdg 51

(B) RW 10 length 6600 ft width 150 ft
ILS 110.30 / hdg 100

(C) RW 23 length 4225 ft width 100 ft
---- / hdg 231

(D) RW 28 length 6600 ft width 150 ft
---- / hdg 280

Location; KLAF
Day. 16 / Time. 02.54 Zulu
* Altimeter: 29.97
* Temperature: -01° c. -30.2°f.
* Wind from: 230° Speed 10 kn with Gusts up to 17 kn.
Dewpoint: -03° c.
Visibility: 8 Statute Miles.
Clouds: Overcast 1200 ft.

KLAF 160254Z AUTO 23010G17KT 8SM OVC012 M01/M03 A2997 RMK AO2 SLP155 T10111028 58001


Wind From 230°
Speed 10 kn.

 
 
jpsmedia.com for Web Design worldairports.se 2018   terms of use